Location: Eenumerhoogte
(53.3420°N, 6.7843°E)
Time: 20:49:09
(UTC+00:00)

Cosmos 2233 Rocket - Pass Details

Date: 15 May 2026
Orbit: 952 x 990 km, 82.9° (Epoch: 8 June)

Event Time Altitude Azimuth Distance (km) Brightness Sun altitude
Rises 20:07:32 0° 186° (S) 3,648 6.6 -5.6°
Reaches altitude 10° 20:10:02 10° 186° (S) 2,700 6.0 -5.9°
Maximum altitude 20:16:13 85° 100° (E) 971 4.0 -6.6°
Drops below altitude 10° 20:22:24 10° 12° (NNE) 2,697 6.8 -7.2°
Sets 20:24:54 0° 12° (NNE) 3,644 7.5 -7.5°
